EC1DIR-13 Weather Reports


time (UTC)temp
C
wind
direction
speed
KPH
gust
KPH
rain 1hr
cm
rain 24hr
cm
rain mn
cm
humidity
%
barometer
mb
20260507074511 13 130 0.0 8.0 0.00 0.00 0.00 45 1012.3
20260507073008 12 90 0.0 3.2 0.00 0.00 0.00 45 1012.3
20260507071507 12 36 0.0 11.3 0.00 0.00 0.00 46 1012.2
20260507070002 12 99 0.0 8.0 0.00 0.00 0.00 46 1012.2
20260507064600 12 87 0.0 1.6 0.00 0.00 0.00 47 1012.2
20260507063101 12 83 0.0 4.8 0.00 0.00 0.00 46 1012.2
20260507061554 12 89 0.0 0.0 0.00 0.00 0.00 47 1012.2
20260507060052 12 84 0.0 0.0 0.00 0.00 0.00 47 1012.1
20260507054554 12 42 0.0 0.0 0.00 0.00 0.00 47 1012.0
20260507053048 12 50 0.0 0.0 0.00 0.00 0.00 46 1011.9
20260507051548 12 76 0.0 0.0 0.00 0.00 0.00 46 1011.8
20260507050046 12 87 0.0 4.8 0.00 0.00 0.00 45 1011.8
20260507044548 12 67 0.0 1.6 0.00 0.00 0.00 45 1011.8
20260507043046 12 70 0.0 1.6 0.00 0.00 0.00 45 1011.9
20260507041545 12 70 0.0 1.6 0.00 0.00 0.00 44 1011.8
20260507040048 12 93 0.0 0.0 0.00 0.00 0.00 43 1011.9
20260507034546 12 83 0.0 1.6 0.00 0.00 0.00 43 1012.0
20260507033041 12 45 0.0 0.0 0.00 0.00 0.00 42 1012.0
20260507031542 12 64 0.0 0.0 0.00 0.00 0.00 42 1012.1
20260507030042 11 90 0.0 0.0 0.00 0.00 0.00 42 1012.2
20260507024539 11 40 0.0 0.0 0.00 0.00 0.00 42 1012.2
20260507023038 11 31 0.0 0.0 0.00 0.00 0.00 42 1012.2
20260507021539 11 50 0.0 1.6 0.00 0.00 0.00 41 1012.2
20260507020037 11 60 0.0 0.0 0.00 0.00 0.00 40 1012.2
20260507014541 12 39 0.0 19.3 0.00 0.00 0.00 38 1012.2
20260507013036 12 83 0.0 9.7 0.00 0.00 0.00 38 1012.1
20260507011534 12 29 1.6 20.9 0.00 0.00 0.00 35 1012.1
20260507010032 12 74 0.0 22.5 0.00 0.00 0.00 32 1012.3
20260507004531 12 38 0.0 6.4 0.00 0.00 0.00 30 1012.1
20260507003029 12 93 0.0 17.7 0.00 0.00 0.00 31 1012.2
20260507001526 11 31 0.0 3.2 0.00 0.00 0.00 36 1012.3
20260507000028 11 40 0.0 0.0 0.00 0.00 0.00 37 1012.3
20260506234525 11 35 0.0 4.8 0.00 0.00 0.00 37 1012.3
20260506233025 11 42 0.0 0.0 0.00 0.00 0.00 35 1012.2
20260506231523 11 12 0.0 0.0 0.00 0.00 0.00 34 1012.2
20260506230022 10 18 0.0 4.8 0.00 0.00 0.00 36 1012.1
20260506224520 10 18 0.0 3.2 0.00 0.00 0.00 37 1012.1
20260506223018 10 12 0.0 3.2 0.00 0.00 0.00 37 1012.1
20260506221516 11 14 0.0 4.8 0.00 0.00 0.00 35 1012.1
20260506220016 11 15 0.0 0.0 0.00 0.00 0.00 35 1012.1
20260506214510 11 14 0.0 0.0 0.00 0.00 0.00 33 1012.2
20260506213013 12 18 0.0 0.0 0.00 0.00 0.00 33 1012.2
20260506211502 12 18 0.0 0.0 0.00 0.00 0.00 32 1012.3
20260506210057 12 18 0.0 0.0 0.00 0.00 0.00 31 1012.3
20260506204553 12 14 0.0 0.0 0.00 0.00 0.00 29 1012.3
20260506203052 12 4 0.0 0.0 0.00 0.00 0.00 28 1012.2
20260506201604 13 66 0.0 0.0 0.00 0.00 0.00 28 1012.2
20260506200039 13 73 0.0 0.0 0.00 0.00 0.00 27 1012.1
20260506194540 14 91 0.0 0.0 0.00 0.00 0.00 26 1012.1
20260506193035 15 91 0.0 0.0 0.00 0.00 0.00 23 1011.9
20260506191527 16 91 0.0 0.0 0.00 0.00 0.00 19 1011.9
20260506190023 16 91 0.0 3.2 0.00 0.00 0.00 15 1011.8
20260506184518 17 97 0.0 0.0 0.00 0.00 0.00 12 1011.7
20260506183014 17 108 0.0 6.4 0.00 0.00 0.00 8 1011.7
20260506181510 18 114 0.0 1.6 0.00 0.00 0.00 8 1011.7
20260506180006 18 146 0.0 6.4 0.00 0.00 0.00 7 1011.6
20260506174501 18 152 0.0 0.0 0.00 0.00 0.00 10 1011.7
20260506173118 18 121 0.0 6.4 0.00 0.00 0.00 8 1011.7
20260506171557 19 178 0.0 0.0 0.00 0.00 0.00 7 1011.7
20260506170050 18 89 0.0 3.2 0.00 0.00 0.00 8 1011.8
20260506164544 20 160 0.0 4.8 0.00 0.00 0.00 5 1011.7
20260506163058 18 78 0.0 4.8 0.00 0.00 0.00 9 1011.8
20260506161543 18 148 0.0 6.4 0.00 0.00 0.00 9 1011.8
20260506160042 18 170 1.6 8.0 0.00 0.00 0.00 9 1011.9
20260506154543 17 106 0.0 0.0 0.00 0.00 0.00 12 1012.0
20260506153041 17 187 0.0 0.0 0.00 0.00 0.00 13 1012.0
20260506151535 17 189 0.0 6.4 0.00 0.00 0.00 11 1012.3
20260506150033 19 184 0.0 14.5 0.00 0.00 0.00 9 1012.4
20260506144530 18 359 0.0 14.5 0.00 0.00 0.00 10 1012.5
20260506143028 19 359 0.0 6.4 0.00 0.00 0.00 11 1012.8
20260506141526 17 247 0.0 4.8 0.00 0.00 0.00 13 1013.0
20260506140024 17 172 0.0 4.8 0.00 0.00 0.00 14 1013.1
20260506134523 17 201 0.0 1.6 0.00 0.00 0.00 13 1013.2
20260506133023 17 122 0.0 4.8 0.00 0.00 0.00 14 1013.3
20260506131520 18 83 0.0 4.8 0.00 0.00 0.00 14 1013.4
20260506130018 18 249 0.0 4.8 0.00 0.00 0.00 15 1013.6
20260506124516 17 106 0.0 3.2 0.00 0.00 0.00 15 1013.8
20260506123014 17 181 0.0 12.9 0.00 0.00 0.00 19 1014.0
20260506121511 16 93 0.0 6.4 0.00 0.00 0.00 20 1014.1
20260506120010 16 81 0.0 4.8 0.00 0.00 0.00 19 1014.2
20260506114508 15 189 0.0 1.6 0.00 0.00 0.00 21 1014.3
20260506113010 15 87 0.0 0.0 0.00 0.00 0.00 23 1014.4
20260506111506 15 183 0.0 3.2 0.00 0.00 0.00 24 1014.4
20260506110006 15 183 0.0 9.7 0.00 0.00 0.00 23 1014.5
20260506104504 15 228 0.0 4.8 0.00 0.00 0.00 23 1014.5
20260506103003 16 170 0.0 4.8 0.00 0.00 0.00 24 1014.7
20260506101600 15 177 0.0 1.6 0.00 0.00 0.00 23 1014.6
20260506100057 15 107 0.0 0.0 0.00 0.00 0.00 23 1014.7
20260506094554 13 174 0.0 0.0 0.00 0.00 0.00 27 1014.7
20260506093108 13 161 0.0 4.8 0.00 0.00 0.00 28 1014.7
20260506091551 13 194 0.0 4.8 0.00 0.00 0.00 28 1014.7
20260506090055 13 170 0.0 6.4 0.00 0.00 0.00 29 1014.6
20260506084544 13 179 0.0 4.8 0.00 0.00 0.00 30 1014.6
20260506083041 12 253 0.0 0.0 0.00 0.00 0.00 32 1014.6
20260506081536 12 204 0.0 3.2 0.00 0.00 0.00 33 1014.6